M I D A S
Marine Information and Data Acquisition System
Tripno 1524 of the Zeeleeuw from 2008-07-23 06:49:50 to 2008-07-23 13:39:48
Back to CruiseResearch ActivitiesStationsMapUnderway DataData graphs

EquipmentUnitsComments
TimeDGPSUTC
LatitudeDGPSDM.mWGS84
LongitudeDGPSDM.mWGS84
SpeedMeteo Stationm/sRelative wind speed
DirectionMeteo StationdegRelative wind direction
TemperatureMeteo Stationdeg CelciusAir temperature
PressureMeteo StationPaAtmospheric pressure
HumidityMeteo Station%Relative humidity
Missing or incorrect values are displayed as -999
Metereological data collected by the RV Zeeleeuw from 2008-07-23 06:45:42 to 2008-07-23 13:44:32
                                                                                    Next 1000 lines
Time Latitude Longitude Speed Direction Temperature Pressure Humidity
2008-07-23 06:45:53 51°13.621 2°56.048 -999 -999 -999 -999 -999
2008-07-23 06:45:58 51°13.621 2°56.048 -999 -999 -999 -999 -999
2008-07-23 06:46:02 51°13.621 2°56.047 -999 -999 -999 -999 -999
2008-07-23 06:46:07 51°13.621 2°56.045 -999 -999 -999 -999 -999
2008-07-23 06:46:12 51°13.622 2°56.042 -999 -999 -999 -999 -999
2008-07-23 06:46:18 51°13.622 2°56.038 -999 -999 -999 -999 -999
2008-07-23 06:46:22 51°13.623 2°56.034 -999 -999 -999 -999 -999
2008-07-23 06:46:27 51°13.624 2°56.028 -999 -999 -999 -999 -999
2008-07-23 06:46:32 51°13.626 2°56.022 -999 -999 -999 -999 -999
2008-07-23 06:46:38 51°13.628 2°56.013 -999 -999 -999 -999 -999
2008-07-23 06:46:43 51°13.629 2°56.006 -999 -999 -999 -999 -999
2008-07-23 06:46:48 51°13.631 2°55.997 -999 -999 -999 -999 -999
2008-07-23 06:46:53 51°13.633 2°55.989 -999 -999 -999 -999 -999
2008-07-23 06:46:57 51°13.635 2°55.982 -999 -999 -999 -999 -999
2008-07-23 06:47:03 51°13.638 2°55.97 -999 -999 -999 -999 -999
2008-07-23 06:47:08 51°13.64 2°55.961 -999 -999 -999 -999 -999
2008-07-23 06:47:13 51°13.643 2°55.951 -999 -999 -999 -999 -999
2008-07-23 06:47:17 51°13.645 2°55.943 -999 -999 -999 -999 -999
2008-07-23 06:47:23 51°13.648 2°55.93 -999 -999 -999 -999 -999
2008-07-23 06:47:28 51°13.651 2°55.92 -999 -999 -999 -999 -999
2008-07-23 06:47:33 51°13.655 2°55.91 -999 -999 -999 -999 -999
2008-07-23 06:47:37 51°13.658 2°55.902 -999 -999 -999 -999 -999
2008-07-23 06:47:42 51°13.661 2°55.891 -999 -999 -999 -999 -999
2008-07-23 06:47:47 51°13.665 2°55.881 -999 -999 -999 -999 -999
2008-07-23 06:47:53 51°13.67 2°55.869 -999 -999 -999 -999 -999
2008-07-23 06:47:58 51°13.674 2°55.86 -999 -999 -999 -999 -999
2008-07-23 06:48:02 51°13.676 2°55.853 -999 -999 -999 -999 -999
2008-07-23 06:48:07 51°13.68 2°55.845 -999 -999 -999 -999 -999
2008-07-23 06:48:13 51°13.684 2°55.835 -999 -999 -999 -999 -999
2008-07-23 06:48:18 51°13.687 2°55.827 -999 -999 -999 -999 -999
2008-07-23 06:48:22 51°13.69 2°55.821 -999 -999 -999 -999 -999
2008-07-23 06:48:28 51°13.694 2°55.811 -999 -999 -999 -999 -999
2008-07-23 06:48:32 51°13.696 2°55.804 -999 -999 -999 -999 -999
2008-07-23 06:48:38 51°13.7 2°55.794 -999 -999 -999 -999 -999
2008-07-23 06:48:43 51°13.703 2°55.785 -999 -999 -999 -999 -999
2008-07-23 06:48:48 51°13.706 2°55.777 -999 -999 -999 -999 -999
2008-07-23 06:48:52 51°13.708 2°55.77 -999 -999 -999 -999 -999
2008-07-23 06:48:58 51°13.71 2°55.761 -999 -999 -999 -999 -999
2008-07-23 06:49:03 51°13.713 2°55.754 -999 -999 -999 -999 -999
2008-07-23 06:49:08 51°13.715 2°55.748 -999 -999 -999 -999 -999
2008-07-23 06:49:12 51°13.716 2°55.743 -999 -999 -999 -999 -999
2008-07-23 06:49:17 51°13.717 2°55.739 -999 -999 -999 -999 -999
2008-07-23 06:49:22 51°13.718 2°55.735 -999 -999 -999 -999 -999
2008-07-23 06:49:27 51°13.719 2°55.733 -999 -999 -999 -999 -999
2008-07-23 06:49:32 51°13.72 2°55.732 -999 -999 -999 -999 -999
2008-07-23 06:49:38 51°13.721 2°55.732 -999 -999 -999 -999 -999
2008-07-23 06:49:42 51°13.721 2°55.734 -999 -999 -999 -999 -999
2008-07-23 06:49:47 51°13.722 2°55.736 -999 -999 -999 -999 -999
2008-07-23 06:49:52 51°13.723 2°55.737 -999 -999 -999 -999 -999
2008-07-23 06:49:58 51°13.723 2°55.739 -999 -999 -999 -999 -999
2008-07-23 06:50:02 51°13.724 2°55.738 -999 -999 -999 -999 -999
2008-07-23 06:50:07 51°13.724 2°55.737 -999 -999 -999 -999 -999
2008-07-23 06:50:13 51°13.723 2°55.734 -999 -999 -999 -999 -999
2008-07-23 06:50:18 51°13.723 2°55.731 -999 -999 -999 -999 -999
2008-07-23 06:50:22 51°13.722 2°55.728 -999 -999 -999 -999 -999
2008-07-23 06:50:27 51°13.72 2°55.724 -999 -999 -999 -999 -999
2008-07-23 06:50:33 51°13.719 2°55.719 -999 -999 -999 -999 -999
2008-07-23 06:50:38 51°13.718 2°55.715 -999 -999 -999 -999 -999
2008-07-23 06:50:43 51°13.717 2°55.712 -999 -999 -999 -999 -999
2008-07-23 06:50:48 51°13.716 2°55.71 -999 -999 -999 -999 -999
2008-07-23 06:50:52 51°13.716 2°55.71 -999 -999 -999 -999 -999
2008-07-23 06:50:58 51°13.718 2°55.71 -999 -999 -999 -999 -999
2008-07-23 06:51:02 51°13.719 2°55.711 -999 -999 -999 -999 -999
2008-07-23 06:51:08 51°13.721 2°55.712 -999 -999 -999 -999 -999
2008-07-23 06:51:12 51°13.723 2°55.712 -999 -999 -999 -999 -999
2008-07-23 06:51:17 51°13.725 2°55.713 -999 -999 -999 -999 -999
2008-07-23 06:51:23 51°13.729 2°55.713 -999 -999 -999 -999 -999
2008-07-23 06:51:28 51°13.732 2°55.713 -999 -999 -999 -999 -999
2008-07-23 06:51:33 51°13.736 2°55.712 -999 -999 -999 -999 -999
2008-07-23 06:51:37 51°13.739 2°55.711 -999 -999 -999 -999 -999
2008-07-23 06:51:43 51°13.745 2°55.709 -999 -999 -999 -999 -999
2008-07-23 06:51:47 51°13.749 2°55.707 -999 -999 -999 -999 -999
2008-07-23 06:51:52 51°13.755 2°55.703 -999 -999 -999 -999 -999
2008-07-23 06:51:58 51°13.763 2°55.697 -999 -999 -999 -999 -999
2008-07-23 06:52:02 51°13.768 2°55.693 -999 -999 -999 -999 -999
2008-07-23 06:52:08 51°13.777 2°55.685 -999 -999 -999 -999 -999
2008-07-23 06:52:12 51°13.783 2°55.681 -999 -999 -999 -999 -999
2008-07-23 06:52:17 51°13.791 2°55.675 -999 -999 -999 -999 -999
2008-07-23 06:52:22 51°13.798 2°55.67 -999 -999 -999 -999 -999
2008-07-23 06:52:27 51°13.805 2°55.664 -999 -999 -999 -999 -999
2008-07-23 06:52:32 51°13.811 2°55.658 -999 -999 -999 -999 -999
2008-07-23 06:52:37 51°13.818 2°55.653 -999 -999 -999 -999 -999
2008-07-23 06:52:42 51°13.825 2°55.647 -999 -999 -999 -999 -999
2008-07-23 06:52:47 51°13.832 2°55.641 -999 -999 -999 -999 -999
2008-07-23 06:52:52 51°13.839 2°55.635 -999 -999 -999 -999 -999
2008-07-23 06:52:57 51°13.846 2°55.629 -999 -999 -999 -999 -999
2008-07-23 06:53:02 51°13.853 2°55.623 -999 -999 -999 -999 -999
2008-07-23 06:53:07 51°13.86 2°55.617 1.6 11 -999 -999 -999
2008-07-23 06:53:12 51°13.867 2°55.612 1.5 286 -999 -999 -999
2008-07-23 06:53:17 51°13.875 2°55.606 1.5 20 -999 -999 -999
2008-07-23 06:53:22 51°13.882 2°55.6 1.1 282 -999 -999 -999
2008-07-23 06:53:27 51°13.89 2°55.594 1.2 315 18.1 -999 58
2008-07-23 06:53:32 51°13.898 2°55.589 1.3 279 18.1 -999 58
2008-07-23 06:53:37 51°13.905 2°55.583 1.3 37 18.1 -999 64
2008-07-23 06:53:42 51°13.913 2°55.577 1.1 280 18.1 -999 64
2008-07-23 06:53:46 51°13.919 2°55.572 1.4 341 18.1 102510 64
2008-07-23 06:53:51 51°13.927 2°55.565 1.5 283 18.1 102510 64
2008-07-23 06:53:56 51°13.935 2°55.557 1.6 326 18.1 102510 65
2008-07-23 06:54:02 51°13.945 2°55.549 2.1 286 18.1 102510 65
2008-07-23 06:54:06 51°13.952 2°55.543 1.8 319 18.1 102510 65
2008-07-23 06:54:11 51°13.96 2°55.536 1.9 282 18.1 102510 65
2008-07-23 06:54:16 51°13.969 2°55.528 1.3 34 18.1 102510 65
2008-07-23 06:54:21 51°13.978 2°55.521 1.8 279 18.1 102510 65
2008-07-23 06:54:26 51°13.987 2°55.514 1.6 328 18.1 102510 65
2008-07-23 06:54:31 51°13.996 2°55.506 1.5 280 18.1 102510 65
2008-07-23 06:54:36 51°14.005 2°55.499 1.2 321 18.1 102510 65
2008-07-23 06:54:41 51°14.014 2°55.492 0.9 285 18.1 102510 65
2008-07-23 06:54:46 51°14.022 2°55.485 1 321 18.2 102510 66
2008-07-23 06:54:51 51°14.031 2°55.478 1.3 283 18.2 102510 66
2008-07-23 06:54:55 51°14.039 2°55.472 1.1 323 18.2 102510 66
2008-07-23 06:55:00 51°14.047 2°55.465 1.2 283 18.2 102510 66
2008-07-23 06:55:05 51°14.056 2°55.458 1.2 318 18.2 102510 66
2008-07-23 06:55:10 51°14.065 2°55.452 1.3 280 18.2 102510 66
2008-07-23 06:55:15 51°14.074 2°55.445 0.9 329 18.2 102510 66
2008-07-23 06:55:20 51°14.082 2°55.438 1 279 18.2 102510 66
2008-07-23 06:55:25 51°14.092 2°55.431 0.9 331 18.2 102510 66
2008-07-23 06:55:30 51°14.1 2°55.424 1 278 18.2 102510 66
2008-07-23 06:55:35 51°14.109 2°55.417 1 333 18.2 102510 67
2008-07-23 06:55:40 51°14.118 2°55.41 0.9 277 18.2 102510 67
2008-07-23 06:55:45 51°14.127 2°55.403 0.9 332 18.2 102510 67
2008-07-23 06:55:50 51°14.136 2°55.395 1 284 18.2 102510 67
2008-07-23 06:55:55 51°14.145 2°55.387 1.5 320 18.2 102510 67
2008-07-23 06:56:00 51°14.154 2°55.379 2.1 277 18.2 102510 67
2008-07-23 06:56:05 51°14.164 2°55.37 2.3 324 18.3 102520 67
2008-07-23 06:56:10 51°14.173 2°55.361 2 284 18.3 102520 67
2008-07-23 06:56:14 51°14.181 2°55.353 1.9 325 18.3 102510 67
2008-07-23 06:56:19 51°14.19 2°55.343 2 278 18.3 102510 67
2008-07-23 06:56:24 51°14.2 2°55.333 2.1 330 18.3 102510 67
2008-07-23 06:56:29 51°14.21 2°55.322 1.8 282 18.3 102510 67
2008-07-23 06:56:34 51°14.219 2°55.311 1.8 326 18.3 102510 67
2008-07-23 06:56:39 51°14.229 2°55.299 2 285 18.3 102510 67
2008-07-23 06:56:44 51°14.239 2°55.286 2 325 18.3 102510 67
2008-07-23 06:56:49 51°14.248 2°55.272 1.9 284 18.3 102510 67
2008-07-23 06:56:54 51°14.258 2°55.258 2.2 325 18.3 102510 67
2008-07-23 06:56:58 51°14.265 2°55.246 2.3 280 18.3 102510 67
2008-07-23 06:57:03 51°14.274 2°55.23 2.7 324 18.3 102510 67
2008-07-23 06:57:09 51°14.286 2°55.209 3.4 278 18.3 102510 67
2008-07-23 06:57:13 51°14.293 2°55.196 2.9 322 18.3 102510 67
2008-07-23 06:57:18 51°14.303 2°55.178 3.3 284 18.3 102510 67
2008-07-23 06:57:23 51°14.313 2°55.16 3.6 319 18.3 102510 67
2008-07-23 06:57:29 51°14.325 2°55.137 3.4 279 18.3 102510 67
2008-07-23 06:57:34 51°14.336 2°55.118 5.2 327 18.3 102510 67
2008-07-23 06:57:38 51°14.344 2°55.103 4.9 281 18.3 102510 67
2008-07-23 06:57:43 51°14.354 2°55.083 5.4 325 18.3 102510 67
2008-07-23 06:57:48 51°14.364 2°55.063 5.7 278 18.3 102510 67
2008-07-23 06:57:53 51°14.374 2°55.043 5.6 318 18.3 102510 67
2008-07-23 06:57:58 51°14.384 2°55.022 5.4 281 18.3 102510 67
2008-07-23 06:58:03 51°14.394 2°55 6.4 316 18.3 102510 68
2008-07-23 06:58:08 51°14.403 2°54.978 5.9 282 18.3 102510 68
2008-07-23 06:58:14 51°14.414 2°54.952 6.2 40 18.3 102510 68
2008-07-23 06:58:18 51°14.421 2°54.934 5.8 284 18.3 102510 68
2008-07-23 06:58:23 51°14.43 2°54.911 5.8 320 18.3 102500 68
2008-07-23 06:58:29 51°14.44 2°54.882 4.8 278 18.3 102500 68
2008-07-23 06:58:34 51°14.448 2°54.858 6.2 316 18.3 102510 67
2008-07-23 06:58:38 51°14.454 2°54.839 5.2 284 18.3 102510 67
2008-07-23 06:58:43 51°14.462 2°54.815 5.5 315 18.3 102500 67
2008-07-23 06:58:48 51°14.47 2°54.79 6.8 284 18.3 102500 67
2008-07-23 06:58:53 51°14.477 2°54.765 6.6 21 18.3 102510 67
2008-07-23 06:58:58 51°14.484 2°54.74 5.2 281 18.3 102510 67
2008-07-23 06:59:03 51°14.491 2°54.714 6 30 18.3 102500 67
2008-07-23 06:59:09 51°14.499 2°54.684 6.8 283 18.3 102500 67
2008-07-23 06:59:14 51°14.506 2°54.658 6 32 18.3 102500 68
2008-07-23 06:59:18 51°14.513 2°54.638 6.7 280 18.3 102500 68
2008-07-23 06:59:23 51°14.52 2°54.613 5.1 23 18.3 102510 68
2008-07-23 06:59:29 51°14.53 2°54.584 5.9 283 18.3 102510 68
2008-07-23 06:59:33 51°14.537 2°54.564 6.5 26 18.3 102500 67
2008-07-23 06:59:38 51°14.546 2°54.54 6 281 18.3 102500 67
2008-07-23 06:59:43 51°14.554 2°54.516 5.3 25 18.3 102500 68
2008-07-23 06:59:48 51°14.563 2°54.492 6.3 283 18.3 102500 68
2008-07-23 06:59:54 51°14.574 2°54.463 6.1 28 18.3 102510 68
2008-07-23 06:59:58 51°14.581 2°54.444 5.1 282 18.3 102510 68
2008-07-23 07:00:03 51°14.589 2°54.42 5.7 27 18.3 102500 68
2008-07-23 07:00:08 51°14.598 2°54.395 5.4 279 18.3 102500 68
2008-07-23 07:00:14 51°14.608 2°54.366 6.4 28 18.3 102510 66
2008-07-23 07:00:18 51°14.615 2°54.346 6.6 285 18.3 102510 66
2008-07-23 07:00:23 51°14.623 2°54.321 5.5 29 18.3 102510 67
2008-07-23 07:00:29 51°14.632 2°54.291 6.6 281 18.3 102510 67
2008-07-23 07:00:34 51°14.639 2°54.266 7.1 38 18.3 102500 64
2008-07-23 07:00:38 51°14.645 2°54.245 6.8 284 18.3 102500 64
2008-07-23 07:00:43 51°14.652 2°54.22 5.5 28 18.3 102510 62
2008-07-23 07:00:49 51°14.662 2°54.189 5.2 282 18.3 102510 62
2008-07-23 07:00:53 51°14.668 2°54.17 5.5 23 18.3 102500 62
2008-07-23 07:00:58 51°14.676 2°54.145 6.7 281 18.3 102500 62
2008-07-23 07:01:03 51°14.684 2°54.12 5.6 29 18.3 102500 62
2008-07-23 07:01:08 51°14.692 2°54.095 6.2 279 18.3 102500 62
2008-07-23 07:01:13 51°14.7 2°54.07 6.1 26 18.3 102500 62
2008-07-23 07:01:18 51°14.709 2°54.045 5.7 283 18.3 102500 62
2008-07-23 07:01:23 51°14.717 2°54.021 6.5 30 18.3 102500 62
2008-07-23 07:01:28 51°14.725 2°53.996 5.7 283 18.3 102500 62
2008-07-23 07:01:33 51°14.733 2°53.972 5.7 20 18.3 102510 62
2008-07-23 07:01:38 51°14.742 2°53.948 5.3 280 18.3 102510 62
2008-07-23 07:01:43 51°14.75 2°53.924 6.6 315 18.3 102510 62
2008-07-23 07:01:48 51°14.758 2°53.899 6.8 276 18.3 102510 62
2008-07-23 07:01:53 51°14.766 2°53.875 5.6 30 18.3 102510 63
2008-07-23 07:01:58 51°14.773 2°53.85 5.4 278 18.3 102510 63
2008-07-23 07:02:03 51°14.781 2°53.826 5.7 315 18.3 102510 62
2008-07-23 07:02:08 51°14.788 2°53.801 6.2 279 18.3 102510 62
2008-07-23 07:02:13 51°14.796 2°53.777 5.1 22 18.3 102500 63
2008-07-23 07:02:18 51°14.804 2°53.753 5.1 277 18.3 102500 63
2008-07-23 07:02:23 51°14.812 2°53.729 4.9 29 18.3 102510 62
2008-07-23 07:02:28 51°14.82 2°53.705 5.2 282 18.3 102510 62
2008-07-23 07:02:34 51°14.829 2°53.676 5.9 28 18.3 102510 62
2008-07-23 07:02:38 51°14.836 2°53.657 6.6 282 18.3 102510 62
2008-07-23 07:02:43 51°14.844 2°53.633 5.5 317 18.3 102510 62
2008-07-23 07:02:48 51°14.851 2°53.608 5.5 285 18.3 102510 62
2008-07-23 07:02:53 51°14.857 2°53.583 5.5 319 18.3 102510 62
2008-07-23 07:02:58 51°14.863 2°53.557 6.8 283 18.3 102510 62
2008-07-23 07:03:04 51°14.869 2°53.527 5.9 317 18.3 102500 63
2008-07-23 07:03:09 51°14.874 2°53.501 6 277 18.3 102500 63
2008-07-23 07:03:14 51°14.879 2°53.475 6.6 317 18.3 102510 63
2008-07-23 07:03:19 51°14.883 2°53.448 6.8 283 18.3 102510 63
2008-07-23 07:03:24 51°14.888 2°53.422 6.8 317 18.4 102510 63
2008-07-23 07:03:28 51°14.891 2°53.401 6.8 281 18.4 102510 63
2008-07-23 07:03:33 51°14.895 2°53.374 7.5 38 18.3 102510 63
2008-07-23 07:03:39 51°14.9 2°53.342 6.7 283 18.3 102510 63
2008-07-23 07:03:43 51°14.903 2°53.321 7.6 26 18.3 102510 63
2008-07-23 07:03:47 51°14.907 2°53.3 7.3 279 18.3 102510 63
2008-07-23 07:03:54 51°14.913 2°53.262 7 316 18.3 102510 63
2008-07-23 07:03:59 51°14.917 2°53.235 6.1 276 18.3 102510 63
2008-07-23 07:04:03 51°14.92 2°53.214 6 321 18.3 102510 62
2008-07-23 07:04:08 51°14.924 2°53.187 7.2 284 18.3 102510 62
2008-07-23 07:04:13 51°14.929 2°53.16 7.5 317 18.3 102510 62
2008-07-23 07:04:19 51°14.934 2°53.128 7.5 281 18.3 102510 62
2008-07-23 07:04:23 51°14.937 2°53.106 5.8 317 18.4 102510 63
2008-07-23 07:04:27 51°14.94 2°53.085 7.1 277 18.4 102510 63
2008-07-23 07:04:33 51°14.945 2°53.052 7 317 18.4 102510 64
2008-07-23 07:04:39 51°14.949 2°53.02 6.7 283 18.4 102510 64
2008-07-23 07:04:43 51°14.952 2°52.998 6.7 317 18.4 102510 63
2008-07-23 07:04:47 51°14.955 2°52.976 7.1 280 18.4 102510 63
2008-07-23 07:04:54 51°14.96 2°52.938 6.5 317 18.4 102510 63
2008-07-23 07:04:59 51°14.964 2°52.911 6.1 283 18.4 102510 63
2008-07-23 07:05:03 51°14.967 2°52.89 7.1 316 18.4 102520 63
2008-07-23 07:05:08 51°14.972 2°52.863 6.1 280 18.4 102520 63
2008-07-23 07:05:13 51°14.976 2°52.836 6 317 18.4 102510 64
2008-07-23 07:05:19 51°14.981 2°52.804 6.1 284 18.4 102510 64
2008-07-23 07:05:23 51°14.984 2°52.782 6 320 18.4 102510 64
2008-07-23 07:05:28 51°14.988 2°52.755 7.2 278 18.4 102510 64
2008-07-23 07:05:33 51°14.993 2°52.728 5.7 316 18.4 102510 63
2008-07-23 07:05:38 51°14.997 2°52.701 6.8 278 18.4 102510 63
2008-07-23 07:05:43 51°15.001 2°52.674 5.7 317 18.4 102510 63
2008-07-23 07:05:49 51°15.005 2°52.641 7 279 18.4 102510 63
2008-07-23 07:05:53 51°15.008 2°52.62 6.3 317 18.4 102510 63
2008-07-23 07:05:59 51°15.013 2°52.587 7.9 278 18.4 102510 63
2008-07-23 07:06:03 51°15.015 2°52.565 6.4 317 18.4 102510 63
2008-07-23 07:06:08 51°15.018 2°52.538 7.5 279 18.4 102510 63
2008-07-23 07:06:13 51°15.022 2°52.511 7.6 317 18.4 102510 63
2008-07-23 07:06:18 51°15.024 2°52.483 7.5 278 18.4 102510 63
2008-07-23 07:06:23 51°15.027 2°52.455 7.5 318 18.4 102510 63
2008-07-23 07:06:29 51°15.029 2°52.422 7.2 279 18.4 102510 63
2008-07-23 07:06:34 51°15.032 2°52.395 7.5 320 18.4 102510 63
2008-07-23 07:06:39 51°15.034 2°52.367 6.4 283 18.4 102510 63
2008-07-23 07:06:43 51°15.036 2°52.345 6.2 318 18.4 102510 63
2008-07-23 07:06:48 51°15.038 2°52.317 6.2 279 18.4 102510 63
2008-07-23 07:06:53 51°15.04 2°52.29 7.3 319 18.4 102510 64
2008-07-23 07:06:59 51°15.043 2°52.256 7.6 277 18.4 102510 64
2008-07-23 07:07:03 51°15.045 2°52.234 7.3 317 18.4 102510 64
2008-07-23 07:07:08 51°15.046 2°52.206 6 277 18.4 102510 64
2008-07-23 07:07:14 51°15.049 2°52.173 7.4 318 18.4 102510 63
2008-07-23 07:07:19 51°15.051 2°52.145 7.2 278 18.4 102510 63
2008-07-23 07:07:23 51°15.053 2°52.122 6.2 318 18.4 102510 64
2008-07-23 07:07:28 51°15.055 2°52.094 6.2 283 18.4 102510 64
2008-07-23 07:07:33 51°15.058 2°52.067 6.1 318 18.4 102510 64
2008-07-23 07:07:39 51°15.06 2°52.033 7.1 278 18.4 102510 64
2008-07-23 07:07:43 51°15.063 2°52.011 6.5 318 18.4 102510 63
2008-07-23 07:07:49 51°15.065 2°51.977 5.7 278 18.4 102510 63
2008-07-23 07:07:53 51°15.067 2°51.955 7.6 316 18.4 102510 64
2008-07-23 07:07:59 51°15.07 2°51.921 7 279 18.4 102510 64
2008-07-23 07:08:03 51°15.073 2°51.899 6.7 317 18.4 102510 64
2008-07-23 07:08:07 51°15.074 2°51.876 6.6 277 18.4 102510 64
2008-07-23 07:08:14 51°15.08 2°51.838 7.7 22 18.4 102520 64
2008-07-23 07:08:19 51°15.082 2°51.81 7.5 283 18.4 102520 64
2008-07-23 07:08:23 51°15.085 2°51.788 6.2 316 18.4 102520 64
2008-07-23 07:08:29 51°15.089 2°51.754 6.4 286 18.4 102520 64
2008-07-23 07:08:33 51°15.091 2°51.732 6.3 316 18.4 102510 63
2008-07-23 07:08:39 51°15.095 2°51.698 6.8 283 18.4 102510 63
2008-07-23 07:08:43 51°15.096 2°51.676 7.7 318 18.4 102510 64
2008-07-23 07:08:47 51°15.099 2°51.654 7.5 280 18.4 102510 64
2008-07-23 07:08:53 51°15.102 2°51.62 6 317 18.4 102510 64
2008-07-23 07:08:59 51°15.105 2°51.587 7.6 278 18.4 102510 64
2008-07-23 07:09:03 51°15.108 2°51.565 6.8 319 18.4 102510 64
2008-07-23 07:09:08 51°15.113 2°51.538 7.2 280 18.4 102510 64
2008-07-23 07:09:14 51°15.118 2°51.505 6.6 317 18.4 102510 63
2008-07-23 07:09:19 51°15.124 2°51.479 6.6 283 18.4 102510 63
2008-07-23 07:09:23 51°15.128 2°51.458 6.5 319 18.4 102510 64
2008-07-23 07:09:27 51°15.134 2°51.437 5.3 281 18.4 102510 64
2008-07-23 07:09:33 51°15.142 2°51.406 6.3 317 18.4 102510 64
2008-07-23 07:09:39 51°15.152 2°51.377 5.9 282 18.4 102510 64
2008-07-23 07:09:43 51°15.159 2°51.357 5.7 319 18.4 102520 64
2008-07-23 07:09:47 51°15.166 2°51.339 6.5 276 18.4 102520 64
2008-07-23 07:09:53 51°15.177 2°51.31 5.6 318 18.4 102510 63
2008-07-23 07:09:58 51°15.187 2°51.287 5 278 18.4 102510 63
2008-07-23 07:10:03 51°15.197 2°51.264 4.7 319 18.4 102510 64
2008-07-23 07:10:08 51°15.207 2°51.241 4.7 285 18.4 102510 64
2008-07-23 07:10:13 51°15.218 2°51.22 5.7 318 18.4 102520 64
2008-07-23 07:10:18 51°15.23 2°51.199 5.6 283 18.4 102520 64
2008-07-23 07:10:23 51°15.242 2°51.179 5.8 320 18.4 102520 64
2008-07-23 07:10:28 51°15.255 2°51.16 6 277 18.4 102520 64
2008-07-23 07:10:34 51°15.27 2°51.138 4.7 317 18.4 102520 64
2008-07-23 07:10:39 51°15.283 2°51.119 5.4 279 18.4 102520 64
2008-07-23 07:10:43 51°15.294 2°51.105 4.6 316 18.4 102520 65
2008-07-23 07:10:49 51°15.309 2°51.086 4.7 284 18.4 102520 65
2008-07-23 07:10:53 51°15.319 2°51.075 4.5 27 18.4 102520 65
2008-07-23 07:10:59 51°15.333 2°51.059 4.1 285 18.4 102520 65
2008-07-23 07:11:03 51°15.343 2°51.05 1.9 25 18.4 102520 65
2008-07-23 07:11:08 51°15.354 2°51.039 3.3 280 18.4 102520 65
2008-07-23 07:11:14 51°15.367 2°51.028 2.6 24 18.4 102530 64
2008-07-23 07:11:19 51°15.377 2°51.018 2.8 278 18.4 102530 64
2008-07-23 07:11:23 51°15.385 2°51.011 2.7 24 18.4 102520 65
2008-07-23 07:11:28 51°15.395 2°51.003 2.8 279 18.4 102520 65
2008-07-23 07:11:34 51°15.406 2°50.993 2.5 24 18.4 102520 65
2008-07-23 07:11:39 51°15.416 2°50.985 2 283 18.4 102520 65
2008-07-23 07:11:43 51°15.423 2°50.979 2.7 30 18.4 102520 65
2008-07-23 07:11:48 51°15.432 2°50.971 1.9 277 18.4 102520 65
2008-07-23 07:11:53 51°15.441 2°50.963 2.3 238 18.4 102520 65
2008-07-23 07:11:59 51°15.451 2°50.954 1.7 282 18.4 102520 65
2008-07-23 07:12:03 51°15.458 2°50.948 1.8 28 18.4 102530 65
2008-07-23 07:12:08 51°15.466 2°50.94 1.8 277 18.4 102530 65
2008-07-23 07:12:13 51°15.474 2°50.932 1.7 28 18.4 102530 65
2008-07-23 07:12:19 51°15.484 2°50.922 2.2 280 18.4 102530 65
2008-07-23 07:12:23 51°15.49 2°50.916 1.9 21 18.4 102530 65
2008-07-23 07:12:28 51°15.498 2°50.909 1.8 276 18.4 102530 65
2008-07-23 07:12:33 51°15.506 2°50.901 2.1 245 18.4 102520 65
2008-07-23 07:12:38 51°15.514 2°50.894 1.6 280 18.4 102520 65
2008-07-23 07:12:43 51°15.522 2°50.887 1.5 248 18.4 102530 64
2008-07-23 07:12:49 51°15.531 2°50.878 1.5 284 18.4 102530 64
2008-07-23 07:12:53 51°15.538 2°50.872 1.9 246 18.4 102530 64
2008-07-23 07:12:59 51°15.547 2°50.863 1.6 279 18.4 102530 64
2008-07-23 07:13:03 51°15.553 2°50.857 1.9 22 18.4 102530 64
2008-07-23 07:13:08 51°15.56 2°50.849 1.8 281 18.4 102530 64
2008-07-23 07:13:14 51°15.569 2°50.84 2.1 24 18.4 102530 64
2008-07-23 07:13:19 51°15.577 2°50.833 2 279 18.4 102530 64
2008-07-23 07:13:23 51°15.583 2°50.826 2 20 18.4 102520 64
2008-07-23 07:13:28 51°15.59 2°50.819 1.8 279 18.4 102520 64
2008-07-23 07:13:34 51°15.599 2°50.809 2 22 18.4 102530 64
2008-07-23 07:13:39 51°15.606 2°50.802 2.8 276 18.4 102530 64
2008-07-23 07:13:43 51°15.612 2°50.796 1.9 242 18.5 102530 64
2008-07-23 07:13:48 51°15.62 2°50.788 1.9 284 18.5 102530 64
2008-07-23 07:13:53 51°15.627 2°50.78 1.9 26 18.5 102530 64
2008-07-23 07:13:59 51°15.636 2°50.771 1.7 276 18.5 102530 64
2008-07-23 07:14:03 51°15.642 2°50.765 2.6 23 18.5 102520 65
2008-07-23 07:14:08 51°15.649 2°50.757 2 283 18.5 102520 65
2008-07-23 07:14:13 51°15.656 2°50.749 2.2 27 18.5 102530 64
2008-07-23 07:14:19 51°15.665 2°50.74 1.9 280 18.5 102530 64
2008-07-23 07:14:23 51°15.671 2°50.734 1.8 27 18.5 102530 64
2008-07-23 07:14:28 51°15.678 2°50.727 1.9 278 18.5 102530 64
2008-07-23 07:14:33 51°15.686 2°50.719 1.8 20 18.5 102530 64
2008-07-23 07:14:38 51°15.693 2°50.712 2 284 18.5 102530 64
2008-07-23 07:14:43 51°15.7 2°50.704 2.4 22 18.5 102530 64
2008-07-23 07:14:49 51°15.709 2°50.695 2.1 279 18.5 102530 64
2008-07-23 07:14:53 51°15.715 2°50.689 2.5 26 18.5 102530 65
2008-07-23 07:14:59 51°15.725 2°50.678 3.4 277 18.5 102530 65
2008-07-23 07:15:04 51°15.734 2°50.669 2.9 27 18.6 102530 65
2008-07-23 07:15:08 51°15.742 2°50.661 2.9 276 18.6 102530 65
2008-07-23 07:15:14 51°15.754 2°50.649 3.8 22 18.6 102530 65
2008-07-23 07:15:19 51°15.765 2°50.638 3.2 284 18.6 102530 65
2008-07-23 07:15:23 51°15.774 2°50.629 4.1 22 18.6 102520 65
2008-07-23 07:15:28 51°15.786 2°50.617 4.3 279 18.6 102520 65
2008-07-23 07:15:33 51°15.798 2°50.606 4.6 21 18.6 102520 64
2008-07-23 07:15:39 51°15.814 2°50.59 4 282 18.6 102520 64
2008-07-23 07:15:43 51°15.824 2°50.58 4.4 317 18.6 102520 64
2008-07-23 07:15:47 51°15.835 2°50.569 5 277 18.6 102520 64
2008-07-23 07:15:53 51°15.852 2°50.553 4.5 317 18.6 102520 64
2008-07-23 07:15:59 51°15.869 2°50.537 5.7 285 18.6 102520 64
2008-07-23 07:16:03 51°15.88 2°50.526 5.3 317 18.6 102520 64
2008-07-23 07:16:08 51°15.894 2°50.513 5.2 283 18.6 102520 64
2008-07-23 07:16:14 51°15.912 2°50.496 4.6 316 18.6 102520 64
2008-07-23 07:16:19 51°15.926 2°50.482 4.7 278 18.6 102520 64
2008-07-23 07:16:23 51°15.938 2°50.471 4.5 317 18.6 102520 64
2008-07-23 07:16:28 51°15.952 2°50.457 4.5 281 18.6 102520 64
2008-07-23 07:16:33 51°15.966 2°50.443 5.3 319 18.5 102520 64
2008-07-23 07:16:39 51°15.984 2°50.426 5.1 277 18.5 102520 64
2008-07-23 07:16:43 51°15.995 2°50.415 5.3 318 18.5 102520 64
2008-07-23 07:16:49 51°16.012 2°50.399 5.3 279 18.5 102520 64
2008-07-23 07:16:53 51°16.024 2°50.388 5.3 316 18.5 102520 64
2008-07-23 07:16:59 51°16.041 2°50.371 4.7 285 18.5 102520 64
2008-07-23 07:17:04 51°16.056 2°50.357 4.6 317 18.5 102520 64
2008-07-23 07:17:08 51°16.068 2°50.346 5.2 283 18.5 102520 64
2008-07-23 07:17:14 51°16.085 2°50.33 5.3 319 18.5 102530 65
2008-07-23 07:17:19 51°16.1 2°50.316 4.6 279 18.5 102530 65
2008-07-23 07:17:23 51°16.111 2°50.304 4.7 316 18.5 102520 65
2008-07-23 07:17:28 51°16.126 2°50.29 5.1 283 18.5 102520 65
2008-07-23 07:17:33 51°16.14 2°50.275 4.6 315 18.5 102530 65
2008-07-23 07:17:39 51°16.157 2°50.258 5.1 283 18.5 102530 65
2008-07-23 07:17:43 51°16.169 2°50.246 4.3 38 18.4 102520 65
2008-07-23 07:17:49 51°16.186 2°50.229 5 282 18.4 102520 65
2008-07-23 07:17:53 51°16.198 2°50.217 4.6 318 18.4 102520 64
2008-07-23 07:17:59 51°16.215 2°50.2 5.4 277 18.4 102520 64
2008-07-23 07:18:03 51°16.227 2°50.188 4.1 22 18.4 102520 64
2008-07-23 07:18:08 51°16.242 2°50.174 5.2 278 18.4 102520 64
2008-07-23 07:18:14 51°16.259 2°50.156 5 316 18.4 102530 64
2008-07-23 07:18:19 51°16.273 2°50.142 5.5 277 18.4 102530 64
2008-07-23 07:18:23 51°16.285 2°50.13 5 316 18.4 102520 65
2008-07-23 07:18:28 51°16.299 2°50.116 5 281 18.4 102520 65
2008-07-23 07:18:33 51°16.314 2°50.101 4.2 316 18.4 102520 64
2008-07-23 07:18:39 51°16.332 2°50.084 5.1 276 18.4 102520 64
2008-07-23 07:18:43 51°16.343 2°50.072 4.6 27 18.3 102520 64
2008-07-23 07:18:49 51°16.361 2°50.055 4.3 284 18.3 102520 64
2008-07-23 07:18:53 51°16.373 2°50.044 4.5 317 18.3 102520 64
2008-07-23 07:18:59 51°16.39 2°50.028 4.3 283 18.3 102520 64
2008-07-23 07:19:03 51°16.402 2°50.016 4.2 320 18.3 102520 64
2008-07-23 07:19:08 51°16.416 2°50.003 4.3 282 18.3 102520 64
2008-07-23 07:19:13 51°16.431 2°49.989 5.2 317 18.3 102530 65
2008-07-23 07:19:19 51°16.449 2°49.971 5.5 278 18.3 102530 65
2008-07-23 07:19:23 51°16.46 2°49.959 5.4 315 18.3 102520 65
2008-07-23 07:19:28 51°16.474 2°49.944 4.7 283 18.3 102520 65
2008-07-23 07:19:33 51°16.488 2°49.929 4.3 29 18.3 102520 65
2008-07-23 07:19:39 51°16.505 2°49.911 5.4 278 18.3 102520 65
2008-07-23 07:19:44 51°16.52 2°49.896 4.8 318 18.3 102520 65
2008-07-23 07:19:49 51°16.534 2°49.88 5.4 283 18.3 102520 65
2008-07-23 07:19:53 51°16.545 2°49.868 5.8 316 18.3 102520 65
2008-07-23 07:19:59 51°16.562 2°49.85 5 283 18.3 102520 65
2008-07-23 07:20:03 51°16.573 2°49.837 5.4 28 18.3 102520 65
2008-07-23 07:20:08 51°16.588 2°49.822 4.3 280 18.3 102520 65
2008-07-23 07:20:14 51°16.605 2°49.805 4.9 316 18.2 102520 65
2008-07-23 07:20:19 51°16.619 2°49.79 5.2 276 18.2 102520 65
2008-07-23 07:20:23 51°16.631 2°49.779 4.5 22 18.2 102510 65
2008-07-23 07:20:28 51°16.645 2°49.763 4.9 276 18.2 102510 65
2008-07-23 07:20:34 51°16.662 2°49.746 4.6 316 18.2 102520 65
2008-07-23 07:20:39 51°16.677 2°49.732 5.2 280 18.2 102520 65
2008-07-23 07:20:43 51°16.689 2°49.721 5.4 318 18.2 102520 65
2008-07-23 07:20:49 51°16.706 2°49.704 4.5 280 18.2 102520 65
2008-07-23 07:20:53 51°16.718 2°49.693 4.9 315 18.2 102520 65
2008-07-23 07:20:59 51°16.736 2°49.676 4.8 277 18.2 102520 65
2008-07-23 07:21:03 51°16.747 2°49.665 4.4 315 18.2 102510 65
2008-07-23 07:21:08 51°16.761 2°49.65 4.3 277 18.2 102510 65
2008-07-23 07:21:13 51°16.776 2°49.636 5.3 317 18.1 102520 65
2008-07-23 07:21:19 51°16.793 2°49.618 4.4 281 18.1 102520 65
2008-07-23 07:21:23 51°16.804 2°49.607 4.4 316 18.1 102520 65
2008-07-23 07:21:28 51°16.819 2°49.592 5.6 277 18.1 102520 65
2008-07-23 07:21:33 51°16.833 2°49.578 5.4 317 18.2 102520 66
2008-07-23 07:21:39 51°16.85 2°49.56 4.6 280 18.2 102520 66
2008-07-23 07:21:44 51°16.864 2°49.546 4.7 317 18.2 102520 66
2008-07-23 07:21:49 51°16.878 2°49.531 5 278 18.2 102520 66
2008-07-23 07:21:53 51°16.89 2°49.52 5 28 18.2 102530 66
2008-07-23 07:21:59 51°16.907 2°49.503 4.3 278 18.2 102530 66
2008-07-23 07:22:03 51°16.919 2°49.493 5.6 315 18.2 102530 66
2008-07-23 07:22:08 51°16.933 2°49.478 5.1 281 18.2 102530 66
2008-07-23 07:22:14 51°16.95 2°49.462 4.8 317 18.2 102520 66
2008-07-23 07:22:19 51°16.965 2°49.448 5.5 278 18.2 102520 66
2008-07-23 07:22:23 51°16.976 2°49.438 5.5 316 18.2 102530 66
2008-07-23 07:22:29 51°16.994 2°49.421 4.5 278 18.2 102530 66
2008-07-23 07:22:34 51°17.009 2°49.407 4.2 316 18.2 102520 66
2008-07-23 07:22:39 51°17.023 2°49.393 4.9 278 18.2 102520 66
2008-07-23 07:22:43 51°17.035 2°49.383 4.9 316 18.1 102520 66
2008-07-23 07:22:48 51°17.05 2°49.368 4.6 283 18.1 102520 66
2008-07-23 07:22:54 51°17.068 2°49.352 4.6 316 18.1 102520 66
2008-07-23 07:22:59 51°17.082 2°49.339 4.6 279 18.1 102520 66
2008-07-23 07:23:03 51°17.094 2°49.328 4.4 316 18.1 102530 66
2008-07-23 07:23:08 51°17.109 2°49.314 5.5 285 18.1 102530 66
2008-07-23 07:23:14 51°17.127 2°49.298 4.3 315 18.2 102520 66
2008-07-23 07:23:19 51°17.141 2°49.285 4.8 284 18.2 102520 66
2008-07-23 07:23:23 51°17.153 2°49.274 4.8 20 18.2 102520 66
2008-07-23 07:23:28 51°17.168 2°49.261 5.2 283 18.2 102520 66
2008-07-23 07:23:33 51°17.183 2°49.248 4 316 18.2 102510 66
2008-07-23 07:23:39 51°17.201 2°49.232 4.3 285 18.2 102510 66
2008-07-23 07:23:43 51°17.213 2°49.221 4.4 317 18.2 102520 66
2008-07-23 07:23:49 51°17.23 2°49.205 4 283 18.2 102520 66
2008-07-23 07:23:53 51°17.242 2°49.194 4.7 316 18.2 102530 66
2008-07-23 07:23:59 51°17.26 2°49.178 4.5 283 18.2 102530 66
2008-07-23 07:24:03 51°17.273 2°49.168 4.7 324 18.2 102520 66
2008-07-23 07:24:08 51°17.288 2°49.156 5.2 277 18.2 102520 66
2008-07-23 07:24:13 51°17.303 2°49.143 5.1 316 18.2 102530 66
2008-07-23 07:24:18 51°17.318 2°49.131 5 279 18.2 102530 66
2008-07-23 07:24:23 51°17.333 2°49.119 4.3 23 18.2 102520 66
2008-07-23 07:24:29 51°17.352 2°49.104 5.2 278 18.2 102520 66
2008-07-23 07:24:34 51°17.367 2°49.092 4.5 20 18.2 102520 67
2008-07-23 07:24:39 51°17.382 2°49.08 4.1 277 18.2 102520 67
2008-07-23 07:24:43 51°17.394 2°49.07 2.6 318 18.2 102520 67
2008-07-23 07:24:48 51°17.409 2°49.058 4.5 278 18.2 102520 67
2008-07-23 07:24:54 51°17.428 2°49.044 4.8 315 18.2 102520 66
2008-07-23 07:24:59 51°17.443 2°49.032 4.3 284 18.2 102520 66
2008-07-23 07:25:03 51°17.455 2°49.022 4.8 26 18.2 102520 66
2008-07-23 07:25:08 51°17.47 2°49.009 4.7 283 18.2 102520 66
2008-07-23 07:25:14 51°17.488 2°48.994 4.2 316 18.1 102520 66
2008-07-23 07:25:19 51°17.504 2°48.982 4.4 281 18.1 102520 66
2008-07-23 07:25:23 51°17.515 2°48.971 4.9 317 18.1 102520 66
2008-07-23 07:25:28 51°17.531 2°48.958 5.2 283 18.1 102520 66
2008-07-23 07:25:33 51°17.546 2°48.945 4.7 318 18.1 102530 65
2008-07-23 07:25:39 51°17.563 2°48.93 4.4 277 18.1 102530 65
2008-07-23 07:25:43 51°17.575 2°48.919 4.1 29 18.1 102530 66
2008-07-23 07:25:47 51°17.587 2°48.909 4.9 283 18.1 102530 66
2008-07-23 07:25:53 51°17.606 2°48.893 4.3 319 18.1 102520 66
2008-07-23 07:25:59 51°17.624 2°48.878 5.1 279 18.1 102520 66
2008-07-23 07:26:03 51°17.636 2°48.867 5.3 316 18.1 102520 66
2008-07-23 07:26:08 51°17.65 2°48.854 5 277 18.1 102520 66
2008-07-23 07:26:13 51°17.665 2°48.84 4.6 317 18.1 102520 66
2008-07-23 07:26:18 51°17.68 2°48.827 4.4 278 18.1 102520 66
2008-07-23 07:26:23 51°17.695 2°48.814 5.4 317 18.1 102530 66
2008-07-23 07:26:28 51°17.71 2°48.799 4.6 278 18.1 102530 66
2008-07-23 07:26:34 51°17.727 2°48.783 5.1 317 18.1 102520 66
2008-07-23 07:26:39 51°17.742 2°48.769 5.2 282 18.1 102520 66
2008-07-23 07:26:43 51°17.754 2°48.758 4.4 319 18.1 102520 66
2008-07-23 07:26:49 51°17.772 2°48.741 4.7 285 18.1 102520 66
2008-07-23 07:26:53 51°17.783 2°48.729 5.1 317 18.2 102520 66
2008-07-23 07:26:59 51°17.801 2°48.712 4.3 283 18.2 102520 66
2008-07-23 07:27:03 51°17.812 2°48.7 4.6 318 18.2 102520 66
2008-07-23 07:27:09 51°17.829 2°48.683 4.6 278 18.2 102520 66
2008-07-23 07:27:14 51°17.844 2°48.668 5.4 319 18.1 102520 66
2008-07-23 07:27:19 51°17.858 2°48.653 5.8 283 18.1 102520 66
2008-07-23 07:27:23 51°17.87 2°48.641 5.4 27 18.2 102530 66
2008-07-23 07:27:28 51°17.884 2°48.626 4.2 278 18.2 102530 66
2008-07-23 07:27:33 51°17.898 2°48.611 4.5 318 18.2 102520 67
2008-07-23 07:27:39 51°17.916 2°48.594 4.6 279 18.2 102520 67
2008-07-23 07:27:43 51°17.927 2°48.582 5.1 317 18.2 102520 67
2008-07-23 07:27:49 51°17.945 2°48.565 4.3 278 18.2 102520 67
2008-07-23 07:27:53 51°17.957 2°48.553 5.6 318 18.2 102530 67
2008-07-23 07:27:59 51°17.974 2°48.536 5.3 283 18.2 102530 67
2008-07-23 07:28:03 51°17.986 2°48.524 5.3 317 18.2 102520 67
2008-07-23 07:28:08 51°18 2°48.51 5.3 278 18.2 102520 67
2008-07-23 07:28:13 51°18.015 2°48.495 5.2 319 18.2 102530 67
2008-07-23 07:28:18 51°18.03 2°48.48 5.2 284 18.2 102530 67
2008-07-23 07:28:23 51°18.045 2°48.466 4.6 318 18.2 102530 67
2008-07-23 07:28:28 51°18.06 2°48.452 4.6 279 18.2 102530 67
2008-07-23 07:28:33 51°18.074 2°48.438 4.7 318 18.2 102530 67
2008-07-23 07:28:39 51°18.092 2°48.42 4.6 283 18.2 102530 67
2008-07-23 07:28:44 51°18.107 2°48.405 5.6 318 18.2 102530 67
2008-07-23 07:28:49 51°18.121 2°48.391 5.6 283 18.2 102530 67
2008-07-23 07:28:53 51°18.133 2°48.379 4.9 317 18.2 102520 67
2008-07-23 07:28:59 51°18.15 2°48.361 4.8 278 18.2 102520 67
2008-07-23 07:29:03 51°18.162 2°48.349 4.6 318 18.2 102520 67
2008-07-23 07:29:08 51°18.177 2°48.335 5.8 278 18.2 102520 67
2008-07-23 07:29:14 51°18.194 2°48.317 4.8 320 18.2 102520 68
2008-07-23 07:29:19 51°18.209 2°48.303 4.8 281 18.2 102520 68
2008-07-23 07:29:23 51°18.221 2°48.291 4.9 318 18.2 102530 67
2008-07-23 07:29:28 51°18.235 2°48.276 5.6 284 18.2 102530 67
2008-07-23 07:29:34 51°18.253 2°48.259 5.1 315 18.2 102530 67
2008-07-23 07:29:39 51°18.268 2°48.245 5.3 279 18.2 102530 67
2008-07-23 07:29:43 51°18.28 2°48.233 5.5 316 18.2 102530 67
2008-07-23 07:29:48 51°18.295 2°48.218 5.3 283 18.2 102530 67
2008-07-23 07:29:53 51°18.309 2°48.204 5.4 317 18.2 102520 67
2008-07-23 07:29:59 51°18.327 2°48.186 4.8 277 18.2 102520 67
2008-07-23 07:30:03 51°18.339 2°48.174 4.5 317 18.2 102530 67
2008-07-23 07:30:08 51°18.354 2°48.159 5.5 284 18.2 102530 67
2008-07-23 07:30:13 51°18.369 2°48.145 5 316 18.1 102530 67
2008-07-23 07:30:19 51°18.387 2°48.128 4.6 278 18.1 102530 67
2008-07-23 07:30:23 51°18.398 2°48.116 4.8 318 18.1 102520 67
2008-07-23 07:30:28 51°18.414 2°48.102 5.3 282 18.1 102520 67
2008-07-23 07:30:33 51°18.428 2°48.088 5.3 316 18.1 102530 67
2008-07-23 07:30:38 51°18.443 2°48.074 5.4 284 18.1 102530 67
2008-07-23 07:30:43 51°18.458 2°48.06 5.4 317 18.1 102520 67
2008-07-23 07:30:49 51°18.476 2°48.043 4.4 282 18.1 102520 67
2008-07-23 07:30:53 51°18.488 2°48.032 4.9 316 18.1 102520 67
2008-07-23 07:30:59 51°18.506 2°48.015 4.3 277 18.1 102520 67
2008-07-23 07:31:04 51°18.521 2°48.001 5.3 316 18.1 102520 67
2008-07-23 07:31:09 51°18.536 2°47.987 5.5 278 18.1 102520 67
2008-07-23 07:31:14 51°18.551 2°47.973 5.5 316 18.1 102520 67
2008-07-23 07:31:19 51°18.565 2°47.959 4.9 277 18.1 102520 67
2008-07-23 07:31:23 51°18.577 2°47.947 5.2 316 18.1 102530 67
2008-07-23 07:31:28 51°18.592 2°47.933 4.5 278 18.1 102530 67
2008-07-23 07:31:33 51°18.607 2°47.919 4.6 25 18.1 102530 67
2008-07-23 07:31:39 51°18.624 2°47.902 5.3 277 18.1 102530 67
2008-07-23 07:31:43 51°18.636 2°47.891 5.2 316 18.1 102520 67
2008-07-23 07:31:47 51°18.648 2°47.88 5.3 284 18.1 102520 67
2008-07-23 07:31:53 51°18.666 2°47.864 4.5 317 18.1 102520 67
2008-07-23 07:31:59 51°18.684 2°47.847 5.3 278 18.1 102520 67
2008-07-23 07:32:03 51°18.695 2°47.836 4.4 317 18.1 102520 67
2008-07-23 07:32:08 51°18.71 2°47.822 4.6 284 18.1 102520 67
2008-07-23 07:32:13 51°18.725 2°47.808 5.4 317 18.1 102520 67
2008-07-23 07:32:19 51°18.742 2°47.791 4.9 284 18.1 102520 67
2008-07-23 07:32:23 51°18.754 2°47.78 4.5 317 18 102520 67
2008-07-23 07:32:28 51°18.769 2°47.766 4.9 284 18 102520 67
2008-07-23 07:32:33 51°18.783 2°47.753 4.6 317 18 102520 67
2008-07-23 07:32:39 51°18.801 2°47.736 4.3 280 18 102520 67
2008-07-23 07:32:43 51°18.813 2°47.725 4.8 21 18 102520 67
2008-07-23 07:32:49 51°18.83 2°47.709 5 280 18 102520 67
2008-07-23 07:32:53 51°18.842 2°47.698 4.1 316 18 102530 67
2008-07-23 07:32:59 51°18.86 2°47.681 4.4 277 18 102530 67
2008-07-23 07:33:03 51°18.871 2°47.67 5 316 18 102530 67
2008-07-23 07:33:08 51°18.886 2°47.657 4.9 284 18 102530 67
2008-07-23 07:33:13 51°18.901 2°47.643 5.3 316 18 102520 67
2008-07-23 07:33:18 51°18.916 2°47.629 5.5 278 18 102520 67
2008-07-23 07:33:23 51°18.931 2°47.616 5.2 315 18 102520 67
2008-07-23 07:33:29 51°18.949 2°47.599 4.4 278 18 102520 67
2008-07-23 07:33:34 51°18.963 2°47.585 5.1 317 18 102520 67
2008-07-23 07:33:39 51°18.978 2°47.572 4.1 278 18 102520 67
2008-07-23 07:33:43 51°18.99 2°47.561 4.8 319 18 102520 68
2008-07-23 07:33:48 51°19.006 2°47.55 4.6 282 18 102520 68
2008-07-23 07:33:54 51°19.024 2°47.537 3.9 321 18 102530 68
2008-07-23 07:33:59 51°19.04 2°47.528 4.7 283 18 102530 68
2008-07-23 07:34:03 51°19.053 2°47.52 4.6 317 18 102530 67
2008-07-23 07:34:08 51°19.069 2°47.511 3.8 -999 18 102530 67
2008-07-23 07:34:14 51°19.088 2°47.501 4.6 320 18 102520 68
2008-07-23 07:34:19 51°19.104 2°47.492 4.1 280 18 102520 68
2008-07-23 07:34:23 51°19.117 2°47.486 3.7 317 18 102530 68
2008-07-23 07:34:28 51°19.134 2°47.477 3.7 277 18 102530 68
2008-07-23 07:34:33 51°19.15 2°47.469 3.6 319 18 102530 68
2008-07-23 07:34:39 51°19.17 2°47.459 3.9 277 18 102530 68
2008-07-23 07:34:43 51°19.183 2°47.452 4.3 318 18 102530 68
2008-07-23 07:34:48 51°19.199 2°47.444 4.6 278 18 102530 68
2008-07-23 07:34:53 51°19.216 2°47.436 4.9 319 18 102530 68
2008-07-23 07:34:59 51°19.236 2°47.426 4.9 277 18 102530 68
2008-07-23 07:35:03 51°19.249 2°47.42 4.2 316 18 102530 68
2008-07-23 07:35:09 51°19.268 2°47.41 4 -999 18 102530 68
2008-07-23 07:35:13 51°19.282 2°47.403 4.7 315 18 102530 68
2008-07-23 07:35:19 51°19.301 2°47.393 3.6 284 18 102530 68
2008-07-23 07:35:24 51°19.318 2°47.384 4.3 27 18 102530 68
2008-07-23 07:35:29 51°19.334 2°47.375 4.4 278 18 102530 68
2008-07-23 07:35:34 51°19.35 2°47.367 4.2 316 18 102530 67
2008-07-23 07:35:39 51°19.367 2°47.358 3.9 281 18 102530 67
2008-07-23 07:35:43 51°19.38 2°47.35 4.4 315 18 102530 67
2008-07-23 07:35:48 51°19.397 2°47.342 4.4 278 18 102530 67
2008-07-23 07:35:54 51°19.416 2°47.331 4.5 319 18 102530 67
2008-07-23 07:35:59 51°19.433 2°47.323 4.9 277 18 102530 67
2008-07-23 07:36:03 51°19.446 2°47.316 4.9 28 18 102530 67
2008-07-23 07:36:09 51°19.466 2°47.304 3.8 -999 18 102530 67
2008-07-23 07:36:14 51°19.482 2°47.295 4 316 18 102530 67
2008-07-23 07:36:19 51°19.498 2°47.284 4.2 277 18 102530 67
2008-07-23 07:36:23 51°19.511 2°47.276 4.1 317 18 102530 67
2008-07-23 07:36:29 51°19.53 2°47.263 4.4 283 18 102530 67
2008-07-23 07:36:34 51°19.546 2°47.251 4.9 319 18 102530 67
2008-07-23 07:36:39 51°19.562 2°47.24 5.2 283 18 102530 67
2008-07-23 07:36:43 51°19.575 2°47.23 3.9 318 18 102530 67
2008-07-23 07:36:48 51°19.59 2°47.218 4.8 277 18 102530 67
2008-07-23 07:36:53 51°19.606 2°47.205 5.4 318 18 102530 67
2008-07-23 07:36:59 51°19.624 2°47.189 4.9 277 18 102530 67
2008-07-23 07:37:03 51°19.636 2°47.178 4.8 23 18 102530 67
2008-07-23 07:37:08 51°19.65 2°47.163 5.4 282 18 102530 67
2008-07-23 07:37:13 51°19.664 2°47.147 5.3 316 18 102530 67
2008-07-23 07:37:19 51°19.68 2°47.128 4.6 284 18 102530 67
2008-07-23 07:37:24 51°19.694 2°47.111 5.1 316 18 102530 67
2008-07-23 07:37:28 51°19.704 2°47.098 4.9 278 18 102530 67
2008-07-23 07:37:34 51°19.721 2°47.078 6 315 18 102530 67
2008-07-23 07:37:39 51°19.734 2°47.061 5.2 278 18 102530 67
2008-07-23 07:37:43 51°19.744 2°47.048 4.6 316 18.1 102530 67
2008-07-23 07:37:48 51°19.757 2°47.031 5.2 281 18.1 102530 67
2008-07-23 07:37:53 51°19.771 2°47.013 6.1 27 18.1 102520 67
2008-07-23 07:37:59 51°19.786 2°46.993 6 283 18.1 102520 67
2008-07-23 07:38:03 51°19.797 2°46.979 4.9 26 18.1 102520 66
2008-07-23 07:38:09 51°19.812 2°46.958 5 -999 18.1 102520 66
2008-07-23 07:38:13 51°19.823 2°46.945 5 27 18.1 102530 66
2008-07-23 07:38:19 51°19.839 2°46.925 4.9 278 18.1 102530 66
2008-07-23 07:38:23 51°19.851 2°46.913 5.6 316 18.1 102530 66
2008-07-23 07:38:28 51°19.864 2°46.896 4.8 282 18.1 102530 66
2008-07-23 07:38:34 51°19.881 2°46.877 5 319 18.1 102530 67
2008-07-23 07:38:39 51°19.895 2°46.861 4.8 277 18.1 102530 67
2008-07-23 07:38:43 51°19.906 2°46.848 4.9 315 18.1 102530 67
2008-07-23 07:38:48 51°19.92 2°46.831 4.5 283 18.1 102530 67
2008-07-23 07:38:53 51°19.933 2°46.815 4.9 316 18.1 102530 67
2008-07-23 07:38:59 51°19.95 2°46.795 4.9 283 18.1 102530 67
2008-07-23 07:39:03 51°19.961 2°46.781 4.9 316 18.1 102530 67
2008-07-23 07:39:08 51°19.974 2°46.764 5.9 -999 18.1 102530 67
2008-07-23 07:39:13 51°19.988 2°46.747 6 316 18.1 102540 67
2008-07-23 07:39:19 51°20.005 2°46.728 5.9 283 18.1 102540 67
2008-07-23 07:39:23 51°20.016 2°46.714 6.2 317 18.1 102530 67
2008-07-23 07:39:29 51°20.032 2°46.694 6 279 18.1 102530 67
2008-07-23 07:39:33 51°20.043 2°46.681 5.2 318 18.1 102530 67
2008-07-23 07:39:39 51°20.06 2°46.661 5.2 283 18.1 102530 67
2008-07-23 07:39:43 51°20.071 2°46.647 5.7 318 18.1 102540 67
2008-07-23 07:39:48 51°20.085 2°46.63 5.8 277 18.1 102540 67
2008-07-23 07:39:53 51°20.099 2°46.614 6.3 316 18.1 102530 67
2008-07-23 07:39:58 51°20.113 2°46.596 5 284 18.1 102530 67
2008-07-23 07:40:03 51°20.127 2°46.58 5.8 27 18.1 102520 67
2008-07-23 07:40:09 51°20.143 2°46.56 5.6 -999 18.1 102520 67
2008-07-23 07:40:13 51°20.154 2°46.546 4.7 317 18.1 102530 67
2008-07-23 07:40:19 51°20.171 2°46.526 6 277 18.1 102530 67
2008-07-23 07:40:24 51°20.185 2°46.508 5.2 317 18.1 102530 67
2008-07-23 07:40:28 51°20.196 2°46.494 5.2 284 18.1 102530 67
2008-07-23 07:40:34 51°20.212 2°46.473 5.1 319 18.1 102530 67
2008-07-23 07:40:39 51°20.226 2°46.456 6.1 284 18.1 102530 67
2008-07-23 07:40:43 51°20.237 2°46.442 4.9 318 18.1 102530 67
2008-07-23 07:40:49 51°20.253 2°46.422 4.7 285 18.1 102530 67
2008-07-23 07:40:53 51°20.265 2°46.408 6.1 320 18.1 102530 68
2008-07-23 07:40:59 51°20.282 2°46.389 5.2 283 18.1 102530 68
2008-07-23 07:41:03 51°20.293 2°46.376 5.2 316 18.2 102530 68
2008-07-23 07:41:08 51°20.307 2°46.359 6.1 -999 18.2 102530 68
2008-07-23 07:41:13 51°20.322 2°46.342 5.2 318 18.2 102530 67
2008-07-23 07:41:19 51°20.338 2°46.322 6.1 283 18.2 102530 67
2008-07-23 07:41:23 51°20.349 2°46.308 6.5 318 18.2 102530 67
2008-07-23 07:41:28 51°20.363 2°46.29 6.3 280 18.2 102530 67
2008-07-23 07:41:33 51°20.377 2°46.273 5.7 315 18.1 102530 67
2008-07-23 07:41:39 51°20.393 2°46.253 5.9 283 18.1 102530 67
2008-07-23 07:41:43 51°20.404 2°46.239 4.8 316 18.1 102520 67
2008-07-23 07:41:49 51°20.421 2°46.22 4.7 277 18.1 102520 67
2008-07-23 07:41:53 51°20.433 2°46.207 5.7 318 18.1 102530 67
2008-07-23 07:41:59 51°20.45 2°46.188 5.5 281 18.1 102530 67
2008-07-23 07:42:03 51°20.461 2°46.175 5.7 319 18.1 102530 66
2008-07-23 07:42:08 51°20.475 2°46.16 5.8 277 18.1 102530 66
2008-07-23 07:42:13 51°20.49 2°46.144 4.3 318 18.1 102530 66
2008-07-23 07:42:18 51°20.505 2°46.129 5.4 280 18.1 102530 66
2008-07-23 07:42:23 51°20.519 2°46.114 5.4 319 18.1 102530 66
2008-07-23 07:42:29 51°20.537 2°46.096 4.7 279 18.1 102530 66
2008-07-23 07:42:34 51°20.552 2°46.081 5.4 320 18.1 102530 67
2008-07-23 07:42:39 51°20.567 2°46.066 4.5 284 18.1 102530 67
2008-07-23 07:42:43 51°20.579 2°46.055 5.2 319 18.1 102540 67
2008-07-23 07:42:49 51°20.597 2°46.037 5.3 282 18.1 102540 67
2008-07-23 07:42:53 51°20.609 2°46.026 6.1 316 18.1 102530 67
2008-07-23 07:42:59 51°20.627 2°46.009 5 277 18.1 102530 67
2008-07-23 07:43:03 51°20.639 2°45.998 5.4 317 18.1 102540 67
2008-07-23 07:43:09 51°20.657 2°45.981 5.5 -999 18.1 102540 67
2008-07-23 07:43:14 51°20.672 2°45.967 4.7 318 18.1 102530 67
2008-07-23 07:43:19 51°20.687 2°45.953 5.1 280 18.1 102530 67
2008-07-23 07:43:23 51°20.7 2°45.942 5.2 320 18.1 102540 67
2008-07-23 07:43:28 51°20.715 2°45.929 6.4 278 18.1 102540 67
2008-07-23 07:43:34 51°20.733 2°45.912 5 317 18.2 102530 67
2008-07-23 07:43:39 51°20.748 2°45.898 6 281 18.2 102530 67
2008-07-23 07:43:43 51°20.76 2°45.887 4.8 315 18.2 102530 67
2008-07-23 07:43:49 51°20.779 2°45.87 4.6 278 18.2 102530 67
2008-07-23 07:43:53 51°20.791 2°45.858 4.8 316 18.2 102530 67
2008-07-23 07:43:59 51°20.809 2°45.841 5.5 284 18.2 102530 67
2008-07-23 07:44:03 51°20.822 2°45.83 5.4 318 18.2 102530 67
2008-07-23 07:44:08 51°20.837 2°45.816 5.4 -999 18.2 102530 67
2008-07-23 07:44:13 51°20.852 2°45.802 6 316 18.2 102530 67
2008-07-23 07:44:18 51°20.868 2°45.788 5.8 283 18.2 102530 67
2008-07-23 07:44:23 51°20.883 2°45.774 4.8 316 18.1 102540 67
2008-07-23 07:44:29 51°20.901 2°45.757 5.8 282 18.1 102540 67
2008-07-23 07:44:34 51°20.916 2°45.742 5.1 316 18.1 102540 67
2008-07-23 07:44:39 51°20.93 2°45.727 4.8 277 18.1 102540 67
2008-07-23 07:44:43 51°20.942 2°45.714 5.3 315 18.1 102540 67
2008-07-23 07:44:49 51°20.96 2°45.696 5.6 284 18.1 102540 67
2008-07-23 07:44:53 51°20.972 2°45.684 6.2 317 18.1 102530 67
2008-07-23 07:44:59 51°20.99 2°45.666 6.3 278 18.1 102530 67
2008-07-23 07:45:03 51°21.001 2°45.654 5.9 315 18.2 102540 67
2008-07-23 07:45:09 51°21.019 2°45.636 6.1 -999 18.2 102540 67
2008-07-23 07:45:14 51°21.034 2°45.621 5 316 18.1 102540 67
2008-07-23 07:45:19 51°21.049 2°45.606 5.3 284 18.1 102540 67
2008-07-23 07:45:23 51°21.061 2°45.594 5.1 316 18.1 102530 67
2008-07-23 07:45:28 51°21.076 2°45.579 6.1 281 18.1 102530 67
2008-07-23 07:45:34 51°21.094 2°45.561 5 315 18.1 102530 67
2008-07-23 07:45:39 51°21.109 2°45.546 4.7 284 18.1 102530 67
2008-07-23 07:45:43 51°21.12 2°45.534 5.6 315 18.1 102530 67
2008-07-23 07:45:49 51°21.138 2°45.516 5.7 279 18.1 102530 67
2008-07-23 07:45:53 51°21.15 2°45.505 6.4 315 18.1 102540 67
2008-07-23 07:45:59 51°21.168 2°45.487 4.9 282 18.1 102540 67
2008-07-23 07:46:03 51°21.18 2°45.475 5.5 316 18.1 102550 67
2008-07-23 07:46:08 51°21.195 2°45.46 6.4 -999 18.1 102550 67
2008-07-23 07:46:13 51°21.209 2°45.446 5 24 18.1 102530 67
2008-07-23 07:46:19 51°21.227 2°45.429 5.9 283 18.1 102530 67
2008-07-23 07:46:23 51°21.239 2°45.418 5.3 23 18.2 102540 67
2008-07-23 07:46:28 51°21.254 2°45.404 6.6 284 18.2 102540 67
2008-07-23 07:46:33 51°21.269 2°45.391 6 29 18.1 102530 67
2008-07-23 07:46:39 51°21.286 2°45.374 4.8 283 18.1 102530 67
2008-07-23 07:46:44 51°21.301 2°45.361 4.8 315 18.1 102540 67
2008-07-23 07:46:49 51°21.316 2°45.347 4.8 277 18.1 102540 67
2008-07-23 07:46:53 51°21.328 2°45.337 5 31 18.1 102530 67
2008-07-23 07:46:59 51°21.346 2°45.32 6.4 284 18.1 102530 67
2008-07-23 07:47:03 51°21.358 2°45.31 6 23 18.1 102530 67
2008-07-23 07:47:08 51°21.373 2°45.296 4.8 -999 18.1 102530 67
2008-07-23 07:47:14 51°21.392 2°45.28 5.3 29 18.1 102530 66
2008-07-23 07:47:19 51°21.407 2°45.266 5.6 276 18.1 102530 66
2008-07-23 07:47:23 51°21.419 2°45.255 5.1 27 18.1 102530 66
2008-07-23 07:47:29 51°21.437 2°45.239 6.6 278 18.1 102530 66
2008-07-23 07:47:34 51°21.452 2°45.225 4.7 25 18.1 102540 66
2008-07-23 07:47:39 51°21.467 2°45.212 5.8 279 18.1 102540 66
2008-07-23 07:47:43 51°21.479 2°45.201 6.2 29 18.1 102540 67
2008-07-23 07:47:48 51°21.494 2°45.187 6 280 18.1 102540 67
2008-07-23 07:47:54 51°21.512 2°45.171 5.9 316 18.1 102530 66
2008-07-23 07:47:59 51°21.527 2°45.157 6 285 18.1 102530 66
2008-07-23 07:48:03 51°21.539 2°45.146 5.3 316 18 102540 66
2008-07-23 07:48:08 51°21.554 2°45.132 6 -999 18 102540 66
2008-07-23 07:48:14 51°21.572 2°45.115 5.4 316 18.1 102530 66
2008-07-23 07:48:19 51°21.587 2°45.102 4.5 281 18.1 102530 66
2008-07-23 07:48:23 51°21.599 2°45.091 6 317 18.1 102530 67
2008-07-23 07:48:28 51°21.614 2°45.077 4.9 284 18.1 102530 67
2008-07-23 07:48:33 51°21.629 2°45.063 6.1 319 18.1 102540 67
2008-07-23 07:48:39 51°21.648 2°45.047 5.7 279 18.1 102540 67
2008-07-23 07:48:43 51°21.66 2°45.036 6.4 318 18.1 102540 67
2008-07-23 07:48:49 51°21.678 2°45.02 6.2 277 18.1 102540 67
2008-07-23 07:48:53 51°21.69 2°45.009 5.9 317 18.1 102540 67
2008-07-23 07:48:59 51°21.708 2°44.992 5 279 18.1 102540 67
2008-07-23 07:49:04 51°21.723 2°44.978 4.9 318 18.1 102540 67
2008-07-23 07:49:09 51°21.738 2°44.964 5.9 -999 18.1 102540 67
2008-07-23 07:49:14 51°21.753 2°44.95 6.2 317 18.1 102540 67
2008-07-23 07:49:19 51°21.767 2°44.935 6 282 18.1 102540 67
2008-07-23 07:49:23 51°21.779 2°44.923 5 318 18.1 102540 67
2008-07-23 07:49:28 51°21.794 2°44.909 5.7 278 18.1 102540 67
2008-07-23 07:49:34 51°21.812 2°44.891 4.8 315 18.1 102540 67
2008-07-23 07:49:39 51°21.826 2°44.876 5.9 278 18.1 102540 67
2008-07-23 07:49:43 51°21.838 2°44.864 6 318 18.1 102540 67
2008-07-23 07:49:49 51°21.856 2°44.847 6 282 18.1 102540 67
2008-07-23 07:49:53 51°21.868 2°44.835 5.1 317 18.1 102540 68
2008-07-23 07:49:59 51°21.885 2°44.818 5 283 18.1 102540 68
2008-07-23 07:50:03 51°21.897 2°44.807 5.1 317 18.1 102530 67
2008-07-23 07:50:08 51°21.912 2°44.793 6 -999 18.1 102530 67
2008-07-23 07:50:14 51°21.93 2°44.777 5.2 320 18.1 102540 68
2008-07-23 07:50:19 51°21.945 2°44.764 6.1 277 18.1 102540 68
2008-07-23 07:50:23 51°21.957 2°44.753 6.1 319 18.1 102540 67
2008-07-23 07:50:28 51°21.972 2°44.74 5.7 280 18.1 102540 67
2008-07-23 07:50:33 51°21.987 2°44.726 5.7 317 18.1 102540 67
2008-07-23 07:50:39 51°22.006 2°44.71 4.9 279 18.1 102540 67
2008-07-23 07:50:43 51°22.018 2°44.7 5 318 18.1 102540 67
2008-07-23 07:50:48 51°22.033 2°44.686 5.8 282 18.1 102540 67
2008-07-23 07:50:53 51°22.048 2°44.673 6 317 18.2 102540 68
2008-07-23 07:50:59 51°22.066 2°44.657 4.6 279 18.2 102540 68
2008-07-23 07:51:04 51°22.081 2°44.643 4.8 318 18.2 102550 67
2008-07-23 07:51:09 51°22.096 2°44.63 6.1 -999 18.2 102550 67
2008-07-23 07:51:13 51°22.108 2°44.619 5.2 320 18.1 102540 67
2008-07-23 07:51:19 51°22.127 2°44.603 6.4 278 18.1 102540 67
2008-07-23 07:51:23 51°22.139 2°44.592 5.8 318 18.1 102540 67
2008-07-23 07:51:28 51°22.154 2°44.579 5 282 18.1 102540 67
2008-07-23 07:51:34 51°22.172 2°44.563 4.9 318 18.1 102540 67
2008-07-23 07:51:39 51°22.187 2°44.549 5.8 279 18.1 102540 67
2008-07-23 07:51:43 51°22.199 2°44.538 5.6 316 18.2 102540 67
2008-07-23 07:51:49 51°22.217 2°44.522 4.7 278 18.2 102540 67
2008-07-23 07:51:54 51°22.232 2°44.508 6.4 319 18.1 102540 67
2008-07-23 07:51:59 51°22.247 2°44.494 3.3 285 18.1 102540 67
2008-07-23 07:52:03 51°22.259 2°44.483 5.1 318 18.1 102540 67
2008-07-23 07:52:09 51°22.277 2°44.467 5.1 -999 18.1 102540 67
2008-07-23 07:52:14 51°22.293 2°44.453 5.7 317 18.2 102550 67
2008-07-23 07:52:19 51°22.308 2°44.44 5.9 279 18.2 102550 67
2008-07-23 07:52:23 51°22.32 2°44.429 4.9 316 18.1 102540 67
2008-07-23 07:52:28 51°22.335 2°44.415 4.8 282 18.1 102540 67
2008-07-23 07:52:34 51°22.353 2°44.399 5.9 318 18.1 102540 67
2008-07-23 07:52:39 51°22.368 2°44.385 6.1 276 18.1 102540 67
2008-07-23 07:52:43 51°22.38 2°44.374 5.6 316 18.1 102540 67
2008-07-23 07:52:47 51°22.392 2°44.363 5.7 280 18.1 102540 67
2008-07-23 07:52:54 51°22.414 2°44.344 5.7 318 18.2 102540 67
2008-07-23 07:52:59 51°22.429 2°44.331 5 281 18.2 102540 67
2008-07-23 07:53:03 51°22.44 2°44.319 4.9 319 18.2 102540 67
2008-07-23 07:53:07 51°22.452 2°44.308 4.9 284 18.2 102540 67
2008-07-23 07:53:14 51°22.473 2°44.288 6.1 319 18.2 102540 67
2008-07-23 07:53:19 51°22.488 2°44.273 6.4 277 18.2 102540 67
2008-07-23 07:53:24 51°22.503 2°44.259 5.2 318 18.2 102540 67
2008-07-23 07:53:29 51°22.518 2°44.245 5.8 285 18.2 102540 67
2008-07-23 07:53:34 51°22.532 2°44.231 6.4 318 18.2 102550 67
2008-07-23 07:53:39 51°22.547 2°44.217 4.9 281 18.2 102550 67
2008-07-23 07:53:44 51°22.562 2°44.203 6 320 18.2 102540 67
2008-07-23 07:53:49 51°22.577 2°44.19 5.7 279 18.2 102540 67
2008-07-23 07:53:54 51°22.592 2°44.176 4.7 320 18.2 102550 67
2008-07-23 07:53:59 51°22.607 2°44.162 5.7 281 18.2 102550 67
2008-07-23 07:54:03 51°22.619 2°44.151 6.1 320 18.2 102540 67
2008-07-23 07:54:09 51°22.637 2°44.135 5.3 280 18.2 102540 67
2008-07-23 07:54:14 51°22.652 2°44.121 5.8 318 18.2 102550 67
2008-07-23 07:54:19 51°22.667 2°44.107 6.3 278 18.2 102550 67
2008-07-23 07:54:23 51°22.679 2°44.096 5.3 319 18.2 102550 67
2008-07-23 07:54:27 51°22.691 2°44.085 5.8 277 18.2 102550 67
2008-07-23 07:54:34 51°22.712 2°44.066 5.6 319 18.2 102550 67
2008-07-23 07:54:39 51°22.727 2°44.052 6.1 284 18.2 102550 67
2008-07-23 07:54:43 51°22.739 2°44.041 6.2 319 18.2 102540 67
2008-07-23 07:54:47 51°22.751 2°44.03 5.7 279 18.2 102540 67
2008-07-23 07:54:54 51°22.772 2°44.01 4.8 319 18.2 102540 67
2008-07-23 07:54:59 51°22.786 2°43.997 6.2 279 18.2 102540 67
2008-07-23 07:55:03 51°22.798 2°43.985 5.3 317 18.2 102550 67
2008-07-23 07:55:07 51°22.81 2°43.974 5.5 -999 18.2 102550 67
2008-07-23 07:55:14 51°22.83 2°43.954 4.7 318 18.2 102540 67
2008-07-23 07:55:19 51°22.845 2°43.94 6.2 280 18.2 102540 67
2008-07-23 07:55:24 51°22.86 2°43.926 5.8 319 18.2 102540 67
2008-07-23 07:55:27 51°22.869 2°43.917 6.1 281 18.2 102540 67
2008-07-23 07:55:34 51°22.89 2°43.898 5.4 320 18.2 102550 67
2008-07-23 07:55:39 51°22.905 2°43.883 5.7 278 18.2 102550 67
2008-07-23 07:55:44 51°22.919 2°43.87 5.8 319 18.2 102540 67
2008-07-23 07:55:49 51°22.934 2°43.855 6.1 280 18.2 102540 67
2008-07-23 07:55:54 51°22.949 2°43.841 5.3 318 18.2 102540 67
2008-07-23 07:55:59 51°22.964 2°43.827 6.2 276 18.2 102540 67
2008-07-23 07:56:03 51°22.975 2°43.815 5.4 315 18.2 102540 67
2008-07-23 07:56:09 51°22.993 2°43.798 6 277 18.2 102540 67
2008-07-23 07:56:14 51°23.007 2°43.783 4.8 28 18.2 102540 67
2008-07-23 07:56:19 51°23.022 2°43.769 5.8 280 18.2 102540 67
2008-07-23 07:56:23 51°23.034 2°43.757 5.7 315 18.2 102540 67
2008-07-23 07:56:29 51°23.051 2°43.739 6.1 277 18.2 102540 67
2008-07-23 07:56:34 51°23.066 2°43.725 6.5 318 18.2 102540 67
2008-07-23 07:56:39 51°23.081 2°43.71 6.4 278 18.2 102540 67
2008-07-23 07:56:43 51°23.092 2°43.699 5.3 317 18.2 102540 67
2008-07-23 07:56:49 51°23.11 2°43.681 6.2 277 18.2 102540 67
2008-07-23 07:56:54 51°23.124 2°43.666 6.4 315 18.2 102540 67
2008-07-23 07:56:59 51°23.139 2°43.651 5.1 283 18.2 102540 67
2008-07-23 07:57:03 51°23.15 2°43.638 6.1 33 18.2 102550 67
2008-07-23 07:57:07 51°23.162 2°43.626 6.4 -999 18.2 102550 67
2008-07-23 07:57:14 51°23.181 2°43.604 5.6 317 18.2 102550 67
2008-07-23 07:57:19 51°23.196 2°43.587 6.2 277 18.2 102550 67
2008-07-23 07:57:23 51°23.207 2°43.575 6.2 39 18.2 102550 66
2008-07-23 07:57:27 51°23.218 2°43.562 5.9 283 18.2 102550 66
2008-07-23 07:57:34 51°23.237 2°43.537 5.3 33 18.2 102540 66
2008-07-23 07:57:39 51°23.25 2°43.52 6.1 279 18.2 102540 66
2008-07-23 07:57:44 51°23.263 2°43.501 5.3 317 18.2 102550 66
2008-07-23 07:57:47 51°23.271 2°43.489 7 278 18.2 102550 66
2008-07-23 07:57:54 51°23.289 2°43.463 7 316 18.2 102550 66
2008-07-23 07:57:59 51°23.301 2°43.443 6.5 285 18.2 102550 66
2008-07-23 07:58:04 51°23.314 2°43.424 5.7 317 18.2 102540 66
2008-07-23 07:58:09 51°23.327 2°43.404 6.9 283 18.2 102540 66
2008-07-23 07:58:14 51°23.34 2°43.385 6.6 317 18.2 102540 66
2008-07-23 07:58:19 51°23.352 2°43.366 6.6 285 18.2 102540 66
2008-07-23 07:58:24 51°23.365 2°43.346 6.9 317 18.2 102550 66
2008-07-23 07:58:29 51°23.378 2°43.327 5.5 285 18.2 102550 66
2008-07-23 07:58:34 51°23.391 2°43.308 6.3 316 18.2 102540 66
2008-07-23 07:58:39 51°23.403 2°43.288 5.4 285 18.2 102540 66
2008-07-23 07:58:43 51°23.414 2°43.273 6.3 316 18.2 102540 66
2008-07-23 07:58:49 51°23.43 2°43.25 5.3 280 18.2 102540 66
2008-07-23 07:58:54 51°23.442 2°43.231 6.6 318 18.2 102540 66
2008-07-23 07:58:59 51°23.456 2°43.213 5.7 278 18.2 102540 66
2008-07-23 07:59:03 51°23.466 2°43.198 6.6 316 18.2 102540 66
2008-07-23 07:59:07 51°23.477 2°43.182 6.3 -999 18.2 102540 66
2008-07-23 07:59:14 51°23.495 2°43.157 6.6 317 18.3 102540 67
2008-07-23 07:59:19 51°23.508 2°43.137 6.5 277 18.3 102540 67
2008-07-23 07:59:23 51°23.519 2°43.123 5.8 318 18.2 102540 67
2008-07-23 07:59:27 51°23.529 2°43.108 6.9 277 18.2 102540 67
2008-07-23 07:59:34 51°23.548 2°43.082 6.9 320 18.3 102540 66
2008-07-23 07:59:39 51°23.561 2°43.064 6.7 284 18.3 102540 66
2008-07-23 07:59:43 51°23.571 2°43.048 6.1 321 18.3 102540 66
2008-07-23 07:59:47 51°23.582 2°43.034 6.1 283 18.3 102540 66
2008-07-23 07:59:54 51°23.6 2°43.008 5.6 317 18.3 102540 67
2008-07-23 07:59:59 51°23.613 2°42.989 7.2 283 18.3 102540 67
2008-07-23 08:00:04 51°23.626 2°42.97 7.2 317 18.3 102540 67
2008-07-23 08:00:09 51°23.639 2°42.952 5.7 282 18.3 102540 67
2008-07-23 08:00:14 51°23.652 2°42.933 6.8 316 18.3 102550 67
2008-07-23 08:00:19 51°23.666 2°42.915 6.6 282 18.3 102550 67
2008-07-23 08:00:24 51°23.679 2°42.896 6.8 319 18.3 102540 67
2008-07-23 08:00:29 51°23.692 2°42.878 5.6 283 18.3 102540 67
2008-07-23 08:00:34 51°23.705 2°42.859 5.5 316 18.3 102530 67
2008-07-23 08:00:39 51°23.718 2°42.84 7.1 280 18.3 102530 67
2008-07-23 08:00:44 51°23.731 2°42.821 7 318 18.3 102540 67
2008-07-23 08:00:49 51°23.744 2°42.802 5.6 283 18.3 102540 67
2008-07-23 08:00:54 51°23.757 2°42.784 6.3 318 18.3 102540 67
2008-07-23 08:00:59 51°23.77 2°42.765 6.4 283 18.3 102540 67
2008-07-23 08:01:03 51°23.78 2°42.751 6.6 321 18.3 102530 67
2008-07-23 08:01:09 51°23.796 2°42.728 6.8 -999 18.3 102530 67
2008-07-23 08:01:14 51°23.809 2°42.71 5.9 317 18.3 102540 67
2008-07-23 08:01:19 51°23.822 2°42.691 6.9 283 18.3 102540 67
2008-07-23 08:01:23 51°23.832 2°42.676 5.6 317 18.3 102540 67
2008-07-23 08:01:29 51°23.848 2°42.654 5.8 282 18.3 102540 67
2008-07-23 08:01:34 51°23.861 2°42.634 6.6 319 18.3 102540 67
2008-07-23 08:01:39 51°23.873 2°42.615 6 282 18.3 102540 67
2008-07-23 08:01:43 51°23.884 2°42.6 7.1 320 18.3 102540 67
2008-07-23 08:01:47 51°23.894 2°42.585 5.7 277 18.3 102540 67
2008-07-23 08:01:54 51°23.912 2°42.559 5.8 317 18.3 102540 67
2008-07-23 08:01:59 51°23.925 2°42.541 7.2 280 18.3 102540 67
2008-07-23 08:02:04 51°23.939 2°42.522 7.3 317 18.3 102540 67
2008-07-23 08:02:07 51°23.947 2°42.512 5.8 277 18.3 102540 67
2008-07-23 08:02:14 51°23.966 2°42.487 6.6 320 18.3 102530 67
2008-07-23 08:02:19 51°23.979 2°42.469 6.9 282 18.3 102530 67
2008-07-23 08:02:24 51°23.992 2°42.451 6.7 318 18.3 102530 67
2008-07-23 08:02:29 51°24.006 2°42.433 5.8 280 18.3 102530 67
2008-07-23 08:02:34 51°24.019 2°42.414 6 319 18.2 102540 67
2008-07-23 08:02:39 51°24.032 2°42.396 5.5 279 18.2 102540 67
2008-07-23 08:02:44 51°24.045 2°42.378 5.6 318 18.3 102540 67
2008-07-23 08:02:49 51°24.059 2°42.36 5.9 278 18.3 102540 67
2008-07-23 08:02:54 51°24.072 2°42.343 6.7 319 18.3 102540 67
2008-07-23 08:02:59 51°24.086 2°42.325 6.6 278 18.3 102540 67
2008-07-23 08:03:04 51°24.1 2°42.308 5.6 320 18.3 102540 67
2008-07-23 08:03:09 51°24.113 2°42.29 6.3 -999 18.3 102540 67
2008-07-23 08:03:14 51°24.127 2°42.273 6.3 319 18.3 102530 67
2008-07-23 08:03:19 51°24.14 2°42.255 5.8 277 18.3 102530 67
2008-07-23 08:03:23 51°24.151 2°42.241 5.7 320 18.3 102540 67
2008-07-23 08:03:29 51°24.168 2°42.22 5.7 277 18.3 102540 67
2008-07-23 08:03:34 51°24.181 2°42.203 6.7 321 18.3 102540 67
2008-07-23 08:03:39 51°24.195 2°42.186 5.7 283 18.3 102540 67
2008-07-23 08:03:43 51°24.207 2°42.173 6.5 320 18.3 102540 68
2008-07-23 08:03:47 51°24.218 2°42.159 6.7 278 18.3 102540 68
2008-07-23 08:03:54 51°24.237 2°42.137 5.8 319 18.3 102530 68
2008-07-23 08:03:59 51°24.252 2°42.12 6.2 278 18.3 102530 68
2008-07-23 08:04:03 51°24.263 2°42.107 5.8 321 18.4 102540 68
2008-07-23 08:04:08 51°24.277 2°42.09 6.9 279 18.4 102540 68
2008-07-23 08:04:13 51°24.291 2°42.073 7 321 18.4 102540 68
2008-07-23 08:04:19 51°24.308 2°42.053 5.8 278 18.4 102540 68
2008-07-23 08:04:23 51°24.319 2°42.04 6.9 321 18.4 102540 69
2008-07-23 08:04:29 51°24.336 2°42.02 5.6 283 18.4 102540 69
2008-07-23 08:04:33 51°24.347 2°42.008 5.5 321 18.4 102540 69
2008-07-23 08:04:39 51°24.364 2°41.987 7 277 18.4 102540 69
2008-07-23 08:04:44 51°24.378 2°41.971 6.5 322 18.4 102540 68
2008-07-23 08:04:48 51°24.389 2°41.957 6.4 277 18.4 102540 68
2008-07-23 08:04:54 51°24.406 2°41.938 6.7 324 18.4 102540 68
2008-07-23 08:04:59 51°24.42 2°41.921 6.4 281 18.4 102540 68
2008-07-23 08:05:03 51°24.431 2°41.908 7.1 323 18.3 102540 68
2008-07-23 08:05:09 51°24.448 2°41.888 7 -999 18.3 102540 68
2008-07-23 08:05:14 51°24.461 2°41.87 6.6 324 18.3 102540 68
2008-07-23 08:05:19 51°24.475 2°41.853 6.7 282 18.3 102540 68
2008-07-23 08:05:23 51°24.486 2°41.839 5.8 321 18.3 102530 68
2008-07-23 08:05:29 51°24.502 2°41.818 5.8 278 18.3 102530 68
2008-07-23 08:05:34 51°24.516 2°41.801 6.1 321 18.3 102530 68
2008-07-23 08:05:39 51°24.529 2°41.783 6.4 277 18.3 102530 68
2008-07-23 08:05:43 51°24.54 2°41.77 5.6 323 18.3 102530 68
2008-07-23 08:05:47 51°24.551 2°41.756 5.5 279 18.3 102530 68
2008-07-23 08:05:54 51°24.57 2°41.732 6.8 320 18.3 102540 68
2008-07-23 08:05:59 51°24.584 2°41.715 6.9 278 18.3 102540 68
2008-07-23 08:06:03 51°24.595 2°41.701 6.3 320 18.3 102540 68
2008-07-23 08:06:07 51°24.606 2°41.688 5.9 279 18.3 102540 68
2008-07-23 08:06:14 51°24.625 2°41.665 6.9 321 18.3 102540 68
2008-07-23 08:06:19 51°24.639 2°41.649 5.8 284 18.3 102540 68
2008-07-23 08:06:23 51°24.651 2°41.636 6.2 322 18.3 102530 68
2008-07-23 08:06:27 51°24.662 2°41.624 6.2 280 18.3 102530 68
2008-07-23 08:06:34 51°24.681 2°41.6 6.3 322 18.3 102540 68
2008-07-23 08:06:39 51°24.695 2°41.583 6.3 277 18.3 102540 68
2008-07-23 08:06:44 51°24.709 2°41.566 5.8 322 18.3 102530 68
2008-07-23 08:06:47 51°24.717 2°41.557 5.9 281 18.3 102530 68
2008-07-23 08:06:54 51°24.736 2°41.532 6.8 320 18.2 102530 68
2008-07-23 08:06:59 51°24.749 2°41.515 5.7 282 18.2 102530 68
2008-07-23 08:07:03 51°24.761 2°41.502 6.4 322 18.2 102540 68
2008-07-23 08:07:09 51°24.777 2°41.482 6.2 -999 18.2 102540 68
2008-07-23 08:07:14 51°24.791 2°41.465 6.4 321 18.2 102530 68
2008-07-23 08:07:19 51°24.805 2°41.449 6.6 278 18.2 102530 68
2008-07-23 08:07:24 51°24.819 2°41.432 6.6 323 18.2 102530 68
2008-07-23 08:07:29 51°24.833 2°41.417 5.5 280 18.2 102530 68
2008-07-23 08:07:34 51°24.846 2°41.4 5.7 323 18.2 102540 68
2008-07-23 08:07:39 51°24.861 2°41.383 5.7 279 18.2 102540 68
2008-07-23 08:07:43 51°24.872 2°41.37 6.4 321 18.2 102530 68
2008-07-23 08:07:49 51°24.889 2°41.35 6.2 282 18.2 102530 68
2008-07-23 08:07:54 51°24.903 2°41.334 5.6 321 18.2 102540 68
2008-07-23 08:07:59 51°24.916 2°41.317 6.1 284 18.2 102540 68
2008-07-23 08:08:03 51°24.927 2°41.304 6.9 321 18.2 102530 68
2008-07-23 08:08:09 51°24.943 2°41.283 6.1 280 18.2 102530 68
2008-07-23 08:08:14 51°24.957 2°41.266 5.5 320 18.2 102540 68
2008-07-23 08:08:19 51°24.97 2°41.249 6.8 278 18.2 102540 68
2008-07-23 08:08:23 51°24.981 2°41.235 6.6 320 18.2 102550 68
2008-07-23 08:08:27 51°24.993 2°41.223 6.8 279 18.2 102550 68
2008-07-23 08:08:34 51°25.012 2°41.2 6.6 320 18.2 102530 68
2008-07-23 08:08:39 51°25.026 2°41.185 5.6 283 18.2 102530 68
2008-07-23 08:08:43 51°25.038 2°41.173 5.6 320 18.2 102540 68
2008-07-23 08:08:47 51°25.049 2°41.161 5.6 278 18.2 102540 68
2008-07-23 08:08:54 51°25.07 2°41.14 5.8 319 18.2 102530 68
2008-07-23 08:08:59 51°25.084 2°41.126 6.4 276 18.2 102530 68